Regional Weather Roundup
Issued by NWS

Home | Current Version | Previous Version | Text Only | Print | Product List | Glossary Off
Versions: 1 2 3 4 5 6 7 8 9 10 11 12 13 14 15 16 17 18 19 20 21 22 23 24 25 26 27 28 29 30 31 32 33 34 35 36 37 38 39 40 41 42 43 44 45 46 47 48 49 50

000
ASUS43 KMKX 140321
RWRWI

WISCONSIN REGIONAL WEATHER ROUNDUP
NATIONAL WEATHER SERVICE MILWAUKEE/SULLIVAN WI
1000 PM CDT SUN JUL 13 2014

NOTE: "FAIR" INDICATES FEW OR NO CLOUDS BELOW 12,000 FEET WITH NO
SIGNIFICANT WEATHER AND/OR OBSTRUCTIONS TO VISIBILITY.

WIZ001-002-006>008-014>016-023>028-140400-
NORTHWEST WISCONSIN

CITY           SKY/WX    TMP DP  RH WIND       PRES   REMARKS
SUPERIOR ARPT  CLOUDY    62  49  61 NW9       29.86R
ASHLAND        CLOUDY    62  51  67 W5        29.86R
HAYWARD        CLOUDY    62  52  69 CALM      29.88R
SIREN          CLOUDY    64  50  62 W3        29.88S
RICE LAKE      CLOUDY    62  52  68 CALM      29.90S
LADYSMITH      CLOUDY    64  52  64 W5        29.90S
EAU CLAIRE     MOCLDY    64  55  72 NW3       29.89R
MENOMONIE      CLEAR     63  53  71 SW6       29.90R
NEW RICHMOND   MOCLDY    61  53  74 W3        29.90S
OSCEOLA        CLOUDY    63  53  71 SW5       29.92R
$$

WIZ003>005-009-010-017-018-140400-
NORTH CENTRAL WISCONSIN

CITY           SKY/WX    TMP DP  RH WIND       PRES   REMARKS
WOODRUFF       MOCLDY    61  48  61 CALM      29.87S
RHINELANDER    CLOUDY    58  51  78 W5        29.88S
EAGLE RIVER    CLOUDY    58  49  71 CALM      29.86S
LAND O LAKES   CLOUDY    57  52  83 CALM      29.87S
PHILLIPS       CLOUDY    61  51  70 CALM      29.88R
TOMAHAWK       MOCLDY    54  52  92 CALM      29.89S
MEDFORD        PTCLDY    61  52  73 W3        29.90R
MERRILL        CLEAR     58  52  81 CALM      29.88S
$$

WIZ029-030-035-036-043>047-140400-
CENTRAL WISCONSIN

CITY           SKY/WX    TMP DP  RH WIND       PRES   REMARKS
WAUSAU         PTCLDY    65  49  56 SW6       29.87S
MOSINEE        MOCLDY    59  54  82 SW3       29.90R
MARSHFIELD     MOCLDY    63  52  67 CALM      29.89S
STEVENS POINT  PTCLDY    59  50  72 CALM      29.90R
WAUPACA        CLEAR     59  53  80 CALM      29.90S
WAUTOMA        CLEAR     58  55  89 CALM      29.91R
WISC RAPIDS    CLEAR     58  53  84 SW3       29.91R
CAMP DOUGLAS   CLEAR     54  54 100 SE5       29.90S
$$

WIZ011>013-019>022-031-037>040-048>050-140400-
NORTHEAST WISCONSIN

CITY           SKY/WX    TMP DP  RH WIND       PRES   REMARKS
ANTIGO         CLEAR     56  51  85 CALM      29.89R
STURGEON BAY   CLEAR     61  50  67 SW3       29.88R
GREEN BAY      CLEAR     63  52  67 SW5       29.88R
MANITOWOC      CLEAR     62  52  69 CALM      29.89R
APPLETON       CLEAR     64  46  52 W5        29.90R
CLINTONVILLE   PTCLDY    59  50  72 CALM      29.88S
OSHKOSH        CLEAR     62  54  74 W3        29.89R
$$

WIZ032>034-041-042-053>061-140400-
SOUTHWEST WISCONSIN

CITY           SKY/WX    TMP DP  RH WIND       PRES   REMARKS
LA CROSSE      PTCLDY    66  57  72 SE5       29.89R
SPARTA         CLEAR     58  54  84 CALM      29.91R
VIROQUA        FAIR      63  52  67 S5        29.93R
BOSCOBEL       CLEAR     61  58  90 CALM      29.92R
PRAIRIE DU CHI CLEAR     64  58  81 E3        29.91R
PLATTEVILLE    FAIR      68  55  63 CALM      29.94R
$$

WIZ056-057-062-063-064-067-068-140400-
SOUTH CENTRAL WISCONSIN

CITY           SKY/WX    TMP DP  RH WIND       PRES   REMARKS
BARABOO/DELLS  CLEAR     59  54  82 CALM      29.92R
LONE ROCK      CLEAR     64  55  72 CALM      29.92R
WATERTOWN      PTCLDY    68  54  59 CALM      29.91R
MADISON        PTCLDY    65  58  78 W3        29.92R
MIDDLETON      FAIR      64  57  79 CALM      29.93R
MONROE         CLEAR     68  52  56 NW8       29.93S
JANESVILLE     CLEAR     64  52  63 NW3       29.92R
$$

WIZ051-052-058>065-066-070>072-140400-
SOUTHEAST WISCONSIN

CITY           SKY/WX    TMP DP  RH WIND       PRES   REMARKS
MILWAUKEE      PTCLDY    71  59  65 N7        29.90R
WAUKESHA       PTCLDY    66  54  63 NW5       29.92R
MILWAUKEE/TIMM MOCLDY    70  50  49 NW3       29.91R
RACINE         PTCLDY    70  61  73 CALM      29.91R
BURLINGTON     PTCLDY    65  62  90 CALM      29.91R
KENOSHA        CLEAR     67  62  84 NE3       29.90R
FOND DU LAC    CLEAR     64  51  62 W5        29.90R
SHEBOYGAN      CLEAR     61  51  70 CALM      29.89R
WEST BEND      CLEAR     63  48  59 CALM      29.91R
JUNEAU         CLEAR     66  33  29 W3        29.92R
$$

LSZ147-162-140400-
LAKE SUPERIOR

STATION/POSITION TIME  TEMP    WIND        PRES    WAVE
                       AIR SEA DIR/SP/G            HT/PER
                 (UTC) (F)     (DEG/KT/KT) (MB)    (FT/S)
W MID LAKE BUOY  0250   44 38  250/  6/  8 1010.3R   1/ 3
PORT WING        0200   62     270/  8/ 10 1010.5S
SAXON HARBOR     0200          200/  3/  4 1010.5S
$$

LMZ867-665-643>646-140400-
LAKE MICHIGAN

STATION/POSITION TIME  TEMP    WIND        PRES    WAVE
                       AIR SEA DIR/SP/G            HT/PER
                 (UTC) (F)     (DEG/KT/KT) (MB)    (FT/S)
N MID LAKE BUOY  0250   61 58  200/ 10/ 12 1010.2R   1
NORTHPORT PIER   0200   62     180/  3/  5 1010.5S
KEWAUNEE LAKESHO 0300   65     300/  3/  3 1012.4R
SHEBOYGAN LAKESH 0300   72     290/  5/  6 1012.0R
PORT WASHINGTON  0200   74     340/  3/  6 1012.2S
MILWAUKEE LAKESH 0300   74     310/  6/  9   N/A
S MID LAKE BUOY  0250   66 65  360/  4/  4 1011.8R   0
KENOSHA   LAKESH 0300   71     360/  4/  5   N/A
$$

TC  - TEMPERATURE IN CELSIUS
VSB - VISIBILITY IN STATUTE MILES
WCI - WIND CHILL INDEX
HX  - HEAT INDEX




USA.gov is the U.S. government's official web portal to all federal, state and local government web resources and services.